カタログに戻る

HIMAWARI 6

運用中気象GEO
NORAD 28622·PAYLOAD·🇯🇵 Japan

打ち上げ Feb 26, 2005 から Tanegashima Space Center

Loading…

TLE

最新Source: Space-Track

元期: Sep 14, 2026, 05:12 UTC

1 28622U 05006A   26257.21692404 -.00000217  00000-0  00000-0 0  9992
2 28622   9.5922  57.5317 0010718 279.4552  85.2560  0.98916075 44906

AllMySatでHIMAWARI 6をリアルタイム追跡

Download on the App Store